Regional Weather Roundup
Issued by NWS

Home | Current Version | Previous Version | Text Only | Print | Product List | Glossary Off
Versions: 1 2 3 4 5 6 7 8 9 10 11 12 13 14 15 16 17 18 19 20 21 22 23 24 25 26 27 28 29 30 31 32 33 34 35 36 37 38 39 40 41 42 43 44 45 46 47 48 49 50

243
ASUS43 KLMK 301710
RWRKY
KENTUCKY REGIONAL WEATHER ROUNDUP
NATIONAL WEATHER SERVICE LOUISVILLE KY
100 PM EDT SAT APR 30 2016

NOTE "FAIR" INDICATES FEW OR NO CLOUDS BELOW 12,000 FEET
WITH NO SIGNIFICANT WEATHER AND/OR OBSTRUCTIONS TO VISIBILITY.

KYZ001>023-026-027-061>063-070>075-301800-
WESTERN AND SOUTH CENTRAL KENTUCKY

CITY           SKY/WX    TMP DP  RH WIND       PRES   REMARKS
PADUCAH        CLOUDY    69  62  78 VRB3      29.82F
HENDERSON      CLOUDY    63  59  88 SE3       29.87S
OWENSBORO      CLOUDY    64  63  97 SE18      29.89F
HOPKINSVILLE   CLOUDY    65  65 100 S6        29.90F
BOWLING GREEN  RAIN      67  61  81 CALM      29.95R
GLASGOW        CLOUDY    66  61  84 SE7       29.95S
$$

KYZ024-025-028>034-038-045-046-053-301800-
NORTH CENTRAL KENTUCKY

CITY           SKY/WX    TMP DP  RH WIND       PRES   REMARKS
LOUISVILLE/SDF LGT RAIN  62  59  90 E8        29.96S FOG
LOUISVILLE/LOU LGT RAIN  60  57  89 VRB5      29.97S
FORT KNOX      LGT RAIN  60  59  96 E6        29.94S
$$

KYZ035>037-039>044-047>052-055>060-089>105-301800-
NORTHEAST KENTUCKY

CITY           SKY/WX    TMP DP  RH WIND       PRES   REMARKS
LEXINGTON      LGT RAIN  60  57  89 E10       29.99F
COVINGTON      LGT RAIN  55  54  96 E10       30.01F FOG
FRANKFORT      LGT RAIN  60  57  89 E9        29.97F FOG
$$

KYZ054-064>069-076>088-106>120-301800-
SOUTHEAST KENTUCKY

CITY           SKY/WX    TMP DP  RH WIND       PRES   REMARKS
JACKSON        LGT RAIN  60  56  86 VRB3      30.05R
LONDON         CLOUDY    62  57  83 E3        30.03F
SOMERSET       LGT RAIN  59  59 100 E3        30.02S
MIDDLESBORO    CLOUDY    66  61  84 S3        30.02F
MONTICELLO     LGT RAIN  62  59  90 NE8       30.03S
$$





USA.gov is the U.S. government's official web portal to all federal, state and local government web resources and services.